This is the latest recevied weather packets stored in our database for station/object N5TDX. If no packets are shown the sender has not sent any weather packets the latest 10 day(s).
| Time | Temp. | Humidity | Pressure | Rain* | Wind** | Luminosity | Snow |
|---|---|---|---|---|---|---|---|
| 1778020799 | 30° C | 44% | 1001.3 hPa | 0 mm | - | - | - |
| 1778020496 | 30.56° C | 42% | 1001.5 hPa | 0 mm | - | - | - |
| 1778020192 | 30.56° C | 44% | 1001.1 hPa | 0 mm | - | - | - |
| 1778019889 | 30.56° C | 44% | 1001.2 hPa | 0 mm | - | - | - |
| 1778019584 | 30.56° C | 42% | 1001 hPa | 0 mm | - | - | - |
| 1778019282 | 31.11° C | 42% | 1001.2 hPa | 0 mm | - | - | - |
| 1778018979 | 32.22° C | 40% | 1001.1 hPa | 0 mm | - | - | - |
| 1778018676 | 33.33° C | 39% | 1000.7 hPa | 0 mm | - | - | - |
| 1778018374 | 32.78° C | 42% | 1000.8 hPa | 0 mm | - | - | - |
| 1778018072 | 32.78° C | 39% | 1000.8 hPa | 0 mm | - | - | - |
| 1778017769 | 32.78° C | 40% | 1000.9 hPa | 0 mm | - | - | - |
| 1778017467 | 33.33° C | 39% | 1001 hPa | 0 mm | - | - | - |
| 1778017164 | 33.33° C | 40% | 1000.9 hPa | 0 mm | - | - | - |
| 1778016862 | 33.33° C | 38% | 1001 hPa | 0 mm | - | - | - |
| 1778016557 | 33.33° C | 40% | 1000.7 hPa | 0 mm | - | - | - |
| 1778016254 | 32.78° C | 40% | 1001.1 hPa | 0 mm | - | - | - |
| 1778015951 | 32.78° C | 39% | 1001.1 hPa | 0 mm | - | - | - |
| 1778015649 | 32.78° C | 41% | 1001.2 hPa | 0 mm | - | - | - |
| 1778015344 | 33.33° C | 39% | 1001.2 hPa | 0 mm | - | - | - |
| 1778015042 | 32.78° C | 38% | 1001.3 hPa | 0 mm | - | - | - |
| 1778014739 | 32.78° C | 39% | 1001.2 hPa | 0 mm | - | - | - |
| 1778014437 | 32.78° C | 40% | 1001.3 hPa | 0 mm | - | - | - |
| 1778014134 | 32.78° C | 38% | 1001.6 hPa | 0 mm | - | - | - |
| 1778013831 | 32.78° C | 40% | 1001.5 hPa | 0 mm | - | - | - |
| 1778013528 | 32.78° C | 43% | 1001.7 hPa | 0 mm | - | - | - |
* Rain latest hour (hover to see other rain measurements)
** Current wind speed in m/s (hover to see current wind gust speed)